sat.trackr.live / text

‹ back to catalog

STARLINK-5288

NORAD 55307 · 2023-010AQ

PAYLOAD ACTIVE UNKNOWN

§ Identity

Operator
Country
US
Launch date
2023-01-19
Launch site
AFWTR
Launch vehicle
Mass (kg)
RCS (m²)

Purposes: comms

External: N2YO · Heavens-Above · Gunter

§ Orbital elements

Epoch: 2026-05-25T02:22:01.960320Z

Period
96.11 min
Inclination
69.9984°
Eccentricity
0.0003869
Mean motion
14.98332055 rev/d
Perigee alt
569.4 km
Apogee alt
574.7 km
Semi-major
6,950.2 km
B*
4.9367e-5
RAAN
171.9608°
Arg perigee
265.1363°
Mean anomaly
94.9354°
Rev number
18,521

§ Raw data

STARLINK-52881 55307U 23010AQ  26145.09863380  .00000496  00000+0  49367-4 0  99922 55307  69.9984 171.9608 0003869 265.1363  94.9354 14.98332055185212

JSON: /api/v1/satellites/55307 · /tle

For live sub-satellite position, see the globe view (requires WebGL).

§ Visibility from observer

Set your observer location to see the next 7 days of passes ≥ 10°. The values pass through the URL so the page stays shareable.

No JS? Fill the form by hand. The geolocation button needs JavaScript.